When you browse on this site, cookies collect data to enhance your experience and personalize the content and advertising you see.
Visit our Privacy Policy to learn more. By continuing to use the site, you agree to this use of cookies and data.
  • In United Kingdom
  • List of Countries
  • For 7 days
  • Water Temperature
  • Weather Map
  • Weather Widgets
  • user-avatar
    Login

    Hourly Weather Santa Bárbara

    Today, 25 August, Sunday

    Time Temperature Precipitation Wind Pressure Humidity
    00:00 +22°C° 0.4 mm 0 mps 721 mmHg 98%
    01:00 +22°C° 0 mm 0 mps 721 mmHg 98%
    02:00 +22°C° 0 mm 0 mps 720 mmHg 98%
    03:00 +22°C° 0 mm 0 mps 720 mmHg 98%
    04:00 +22°C° 0 mm 0 mps 720 mmHg 98%
    05:00 +22°C° 0 mm 0 mps 720 mmHg 97%
    06:00 +22°C° 0 mm 0 mps 720 mmHg 97%
    07:00 +24°C° 0 mm 0 mps 721 mmHg 90%
    08:00 +26°C° 0 mm 0 mps 721 mmHg 82%
    09:00 +27°C° 0 mm 0 mps 722 mmHg 74%
    10:00 +29°C° 0 mm 0 mps 722 mmHg 65%
    11:00 +33°C° 0 mm 1 mps 721 mmHg 55%
    12:00 +35°C° 0 mm 1 mps 721 mmHg 46%
    13:00 +35°C° 0 mm 1 mps 721 mmHg 45%
    14:00 +35°C° 0 mm 1 mps 720 mmHg 45%
    15:00 +36°C° 0 mm 2 mps 719 mmHg 44%
    16:00 +32°C° 0.4 mm 1 mps 719 mmHg 60%
    17:00 +29°C° 0.4 mm 1 mps 719 mmHg 76%
    18:00 +27°C° 0.4 mm 1 mps 719 mmHg 91%
    19:00 +26°C° 0.4 mm 1 mps 720 mmHg 93%
    20:00 +23°C° 0.4 mm 0 mps 720 mmHg 95%
    21:00 +22°C° 0.4 mm 0 mps 721 mmHg 96%
    22:00 +22°C° 0.1 mm 0 mps 721 mmHg 96%
    23:00 +22°C° 0.1 mm 0 mps 721 mmHg 96%

    Tomorrow, 26 August, Monday

    Time Temperature Precipitation Wind Pressure Humidity
    00:00 +22°C° 0.1 mm 0 mps 720 mmHg 96%
    01:00 +22°C° 0 mm 0 mps 720 mmHg 96%
    02:00 +22°C° 0 mm 0 mps 720 mmHg 96%
    03:00 +22°C° 0 mm 0 mps 719 mmHg 96%
    04:00 +21°C° 0 mm 0 mps 720 mmHg 96%
    05:00 +23°C° 0 mm 1 mps 720 mmHg 96%
    06:00 +23°C° 0 mm 1 mps 720 mmHg 96%
    07:00 +26°C° 0 mm 1 mps 720 mmHg 84%
    08:00 +27°C° 0 mm 0 mps 721 mmHg 72%
    09:00 +30°C° 0 mm 0 mps 721 mmHg 61%
    10:00 +33°C° 0 mm 1 mps 721 mmHg 54%
    11:00 +34°C° 0 mm 1 mps 721 mmHg 48%
    12:00 +36°C° 0 mm 1 mps 720 mmHg 41%
    13:00 +36°C° 0 mm 1 mps 720 mmHg 40%
    14:00 +37°C° 0 mm 2 mps 719 mmHg 39%
    15:00 +37°C° 0 mm 2 mps 719 mmHg 38%
    16:00 +33°C° 0.1 mm 1 mps 719 mmHg 51%
    17:00 +31°C° 0.1 mm 1 mps 718 mmHg 63%
    18:00 +28°C° 0.1 mm 1 mps 718 mmHg 76%
    19:00 +27°C° 0.4 mm 1 mps 719 mmHg 81%
    20:00 +24°C° 0.4 mm 0 mps 720 mmHg 87%
    21:00 +23°C° 0.4 mm 0 mps 720 mmHg 93%
    22:00 +23°C° 0 mm 0 mps 720 mmHg 94%
    23:00 +22°C° 0 mm 0 mps 720 mmHg 94%

    Day after tomorrow, 27 August, Tuesday

    Time Temperature Precipitation Wind Pressure Humidity
    00:00 +22°C° 0 mm 0 mps 720 mmHg 95%
    01:00 +22°C° 0 mm 0 mps 720 mmHg 95%
    02:00 +23°C° 0 mm 1 mps 720 mmHg 96%
    03:00 +23°C° 0 mm 1 mps 720 mmHg 96%
    04:00 +23°C° 0 mm 1 mps 720 mmHg 96%
    05:00 +23°C° 0 mm 1 mps 720 mmHg 96%
    06:00 +23°C° 0 mm 1 mps 720 mmHg 96%
    07:00 +23°C° 0 mm 0 mps 720 mmHg 85%
    08:00 +26°C° 0 mm 0 mps 721 mmHg 73%
    09:00 +29°C° 0 mm 0 mps 721 mmHg 62%
    10:00 +32°C° 0 mm 1 mps 721 mmHg 55%
    11:00 +34°C° 0 mm 1 mps 721 mmHg 49%
    12:00 +35°C° 0 mm 1 mps 720 mmHg 42%
    13:00 +36°C° 0.1 mm 2 mps 720 mmHg 45%
    14:00 +35°C° 0.1 mm 2 mps 719 mmHg 47%
    15:00 +35°C° 0.1 mm 2 mps 719 mmHg 49%
    16:00 +32°C° 0.9 mm 1 mps 719 mmHg 63%
    17:00 +29°C° 0.9 mm 1 mps 719 mmHg 76%
    18:00 +27°C° 0.9 mm 1 mps 719 mmHg 90%
    19:00 +24°C° 0.3 mm 0 mps 720 mmHg 92%
    20:00 +23°C° 0.3 mm 0 mps 720 mmHg 94%
    21:00 +22°C° 0.3 mm 0 mps 721 mmHg 96%
    22:00 +22°C° 0 mm 0 mps 721 mmHg 96%
    23:00 +22°C° 0 mm 0 mps 721 mmHg 96%

    28 August, Wednesday

    Time Temperature Precipitation Wind Pressure Humidity
    00:00 +24°C° 0 mm 1 mps 721 mmHg 96%
    01:00 +21°C° 0 mm 0 mps 721 mmHg 96%
    02:00 +21°C° 0 mm 0 mps 720 mmHg 96%
    03:00 +21°C° 0 mm 0 mps 720 mmHg 96%
    04:00 +21°C° 0 mm 0 mps 720 mmHg 96%
    05:00 +20°C° 0 mm 0 mps 721 mmHg 96%
    06:00 +20°C° 0 mm 0 mps 721 mmHg 96%
    07:00 +23°C° 0 mm 0 mps 722 mmHg 84%
    08:00 +26°C° 0 mm 0 mps 722 mmHg 73%
    09:00 +29°C° 0 mm 0 mps 723 mmHg 62%
    10:00 +32°C° 0 mm 1 mps 723 mmHg 55%
    11:00 +33°C° 0 mm 1 mps 722 mmHg 49%
    12:00 +34°C° 0 mm 1 mps 722 mmHg 42%
    13:00 +34°C° 0 mm 1 mps 722 mmHg 44%
    14:00 +33°C° 0 mm 1 mps 721 mmHg 47%
    15:00 +33°C° 0 mm 1 mps 720 mmHg 49%
    16:00 +31°C° 0.9 mm 1 mps 720 mmHg 62%
    17:00 +28°C° 0.9 mm 1 mps 720 mmHg 76%
    18:00 +26°C° 0.9 mm 1 mps 720 mmHg 89%
    19:00 +23°C° 1.1 mm 0 mps 721 mmHg 90%
    20:00 +23°C° 1.1 mm 0 mps 721 mmHg 91%
    21:00 +22°C° 1.1 mm 0 mps 722 mmHg 92%
    22:00 +22°C° 0 mm 0 mps 722 mmHg 92%
    23:00 +22°C° 0 mm 0 mps 722 mmHg 92%

    29 August, Thursday

    Time Temperature Precipitation Wind Pressure Humidity
    00:00 +22°C° 0 mm 0 mps 722 mmHg 92%
    01:00 +21°C° 0 mm 0 mps 721 mmHg 92%
    02:00 +21°C° 0 mm 0 mps 721 mmHg 92%
    03:00 +21°C° 0 mm 0 mps 721 mmHg 92%
    04:00 +20°C° 0 mm 0 mps 721 mmHg 92%
    05:00 +20°C° 0 mm 0 mps 721 mmHg 93%
    06:00 +19°C° 0 mm 0 mps 721 mmHg 93%
    07:00 +22°C° 0 mm 0 mps 722 mmHg 81%
    08:00 +25°C° 0 mm 0 mps 722 mmHg 68%
    09:00 +28°C° 0 mm 0 mps 723 mmHg 56%
    10:00 +32°C° 0 mm 1 mps 722 mmHg 49%
    11:00 +33°C° 0 mm 1 mps 722 mmHg 42%
    12:00 +34°C° 0 mm 1 mps 722 mmHg 35%
    13:00 +35°C° 0 mm 2 mps 721 mmHg 36%
    14:00 +35°C° 0 mm 2 mps 721 mmHg 36%
    15:00 +35°C° 0 mm 2 mps 720 mmHg 37%
    16:00 +31°C° 0.1 mm 2 mps 720 mmHg 51%
    17:00 +29°C° 0.1 mm 1 mps 720 mmHg 65%
    18:00 +26°C° 0.1 mm 1 mps 720 mmHg 79%
    19:00 +25°C° 1 mm 1 mps 721 mmHg 85%
    20:00 +24°C° 1 mm 1 mps 721 mmHg 90%
    21:00 +21°C° 1 mm 0 mps 722 mmHg 96%
    22:00 +21°C° 0.2 mm 0 mps 722 mmHg 96%
    23:00 +21°C° 0.2 mm 0 mps 722 mmHg 96%

    30 August, Friday

    Time Temperature Precipitation Wind Pressure Humidity
    00:00 +21°C° 0.2 mm 0 mps 722 mmHg 96%
    01:00 +20°C° 0 mm 0 mps 721 mmHg 96%
    02:00 +20°C° 0 mm 0 mps 721 mmHg 96%
    03:00 +20°C° 0 mm 0 mps 720 mmHg 96%
    04:00 +20°C° 0 mm 0 mps 720 mmHg 96%
    05:00 +19°C° 0 mm 0 mps 721 mmHg 96%
    06:00 +19°C° 0 mm 0 mps 721 mmHg 96%
    07:00 +22°C° 0 mm 0 mps 721 mmHg 85%
    08:00 +25°C° 0 mm 0 mps 722 mmHg 74%
    09:00 +28°C° 0 mm 0 mps 722 mmHg 63%
    10:00 +31°C° 0 mm 1 mps 722 mmHg 54%
    11:00 +32°C° 0 mm 1 mps 722 mmHg 46%
    12:00 +34°C° 0 mm 1 mps 721 mmHg 38%
    13:00 +35°C° 0 mm 2 mps 721 mmHg 38%
    14:00 +35°C° 0 mm 2 mps 720 mmHg 39%
    15:00 +34°C° 0 mm 2 mps 719 mmHg 40%
    16:00 +31°C° 0.1 mm 2 mps 720 mmHg 53%
    17:00 +29°C° 0.1 mm 1 mps 720 mmHg 67%
    18:00 +26°C° 0.1 mm 1 mps 720 mmHg 80%
    19:00 +25°C° 0.7 mm 1 mps 721 mmHg 85%
    20:00 +22°C° 0.7 mm 0 mps 721 mmHg 91%
    21:00 +21°C° 0.7 mm 0 mps 721 mmHg 96%
    22:00 +21°C° 0.1 mm 0 mps 721 mmHg 96%
    23:00 +21°C° 0.1 mm 0 mps 721 mmHg 97%
    Show more